Regional Weather Roundup
Issued by NWS Lake Charles, LA

Home | Current Version | Previous Version | Text Only | Print | Product List | Glossary On
Versions: 1 2 3 4 5 6 7 8 9 10 11 12 13 14 15 16 17 18 19 20 21 22 23 24 25 26 27 28 29 30 31 32 33 34 35 36 37 38 39 40 41 42 43 44 45 46 47 48 49 50
000
ASUS44 KLCH 141210
RWRLCH
RWRLCH
REGIONAL WEATHER ROUNDUP
NATIONAL WEATHER SERVICE LAKE CHARLES LA
700 AM CDT MON JUL 14 2014

Note: "fair" indicates few or no clouds below 12,000 feet with no
significant weather and/or obstructions to visibility.


ACROSS SOUTHEAST TEXAS

CITY           SKY/WX    TMP DP  RH WIND       PRES   REMARKS
BEAUMONT       CLEAR     71  70  96 CALM      30.03S
BEAUMONT CITY    N/A     71  70  98 CALM      30.04R
ORANGE         SUNNY     70  70 100 CALM      30.05S FOG
JASPER         CLEAR     68  67  96 CALM      30.06S
$$

ACROSS CENTRAL LOUISIANA

CITY           SKY/WX    TMP DP  RH WIND       PRES   REMARKS
LEESVILLE      MOCLDY    71  69  93 CALM      30.04S
FULLERTON        N/A     72  69  90 CALM      30.02S FOG
ALEXANDRIA INT CLEAR     72  70  93 S3        30.02S
ESLER FIELD    PTCLDY    73  70  90 CALM      30.04S
DERIDDER         N/A     71  69  93 CALM      30.06S
OAKDALE        SUNNY     70  69  96 CALM      30.04S FOG
OPELOUSAS        N/A     71  71 100 CALM      30.05R FOG
$$

ACROSS SOUTHWEST AND SOUTH CENTRAL LOUISIANA

CITY           SKY/WX    TMP DP  RH WIND       PRES   REMARKS
SULPHUR        SUNNY     72  71  99 CALM      30.06R
LAKE CHARLES   PTCLDY    73  71  93 N3        30.04S FOG
CHENNAULT INT  NOT AVBL
CAMERON PHI    SUNNY     75  73  94 CALM      30.05R
DEQUINCY         N/A     68  67  98 CALM      30.04S
JENNINGS         N/A     73  73 100 CALM      30.05R FOG
LAFAYETTE      PTCLDY    76  74  93 CALM      30.05R
NEW IBERIA     MOCLDY    77  74  90 SE3       30.06R FOG
ABBEVILLE        N/A     74  74  99 CALM      30.05R FOG
PATTERSON      PTCLDY    77  75  94 CALM      30.09R
SALT POINT       N/A     83  76  79 SW3       30.04S
$$

SELECTED SITES ACROSS THE REGION

CITY           SKY/WX    TMP DP  RH WIND       PRES   REMARKS
HOUSTON BUSH   MOCLDY    78  74  87 CALM      30.03S
HOUSTON HOBBY  MOCLDY    79  75  87 SW6       30.03R
GALVESTON      CLEAR     81  76  84 SW6       30.04S
COLLEGE STAT   CLOUDY    76  72  87 SW6       30.03S
CONROE         PTCLDY    76  74  93 S3        30.05R
HUNTSVILLE     PTCLDY    77  72  84 S6        30.03S
LUFKIN         PTCLDY    74  69  85 CALM      30.03S
SHREVEPORT     MOCLDY    76  70  82 VRB3      30.00S
MONROE         CLEAR     74  72  93 S3        30.02S FOG
NATCHEZ MS     PTCLDY    73  72  94 S6        30.05S
BATON ROUGE    CLEAR     75  72  90 CALM      30.06R FOG
N.O. INTL ARPT MOCLDY    79  75  87 SW7       30.05S
SLIDELL        PTCLDY    75  72  90 CALM      30.05R
$$

MARINE REPORTS

STATION/POSITION TIME  TEMP    WIND        PRES    VSBY  WAVE
                       AIR SEA DIR/SP/G                  HT/PER
                 (UTC) (F)     (DEG/KT/KT) (MB)    (MI)  (FT/S)
BUOY 30 S HIGH I NOT AVBL
SEA RIM ST PARK  1200   75      20/  2/  2 1017.8R
PORT ARTHUR      1200      88   CALM  /  2 1017.1S
SABINE PASS N    1200   78 87   50/  3/  4 1017.2S
TEXAS POINT      1200   79 87   20/  4/  5 1017.4R
CALCASIEU PASS   1200   78 86   20/  3/  3 1018.3S
LK CHARLES BEACH 1200   74 86              1018.1R
MARSH ISLAND     1100   85     240/  7/ 11   N/A
FRESH WATER LOCK 1200   81 87  200/ 10/ 13 1017.3S
AMERADA PASS     1200   81 84   CALM  /  2 1017.5S
$$



USA.gov is the U.S. government's official web portal to all federal, state and local government web resources and services.